Location: Angwan Shehu
(11.2514°N, 7.4613°E)
Time: 23:46:32
(UTC+00:00)

Vanguard 3 - Pass Details

Date: 01 August 2021
Orbit: 510 x 3260 km, 33.3° (Epoch: 18 September)

Event Time Altitude Azimuth Distance (km) Brightness Sun altitude
Rises 20:15:30 0° 300° (WNW) 6,565 12.9 -32.5°
Reaches altitude 10° 20:20:14 10° 308° (NW) 5,820 12.3 -33.5°
Maximum altitude 20:37:28 38° 11° (N) 4,289 10.8 -37.1°
Enters shadow 20:49:22 21° 63° (ENE) 4,993 10.8 -39.6°
